Location: Ellerstadt
(49.4644°N, 8.2615°E)
Time: 15:17:27
(UTC+00:00)

IRIDIUM 100 - Pass Details

Date: 30 September 2021
Orbit: 776 x 779 km, 86.4° (Epoch: 20 October)

Event Time Altitude Azimuth Distance (km) Brightness Sun altitude
Exits shadow 01:22:38 18° 348° (NNW) 1,859 ? -36.3°
Drops below altitude 10° 01:23:59 10° 354° (N) 2,342 ? -36.1°
Sets 01:26:26 0° 0° (N) 3,274 ? -35.9°
